Wind_Speed
6 6 7 8 8 8 9 10 9 10 10 10 10 10 10 11 11 11 11 11 12 12 12 12 12 12 12 12 12 12 11 11 11 11 11 10 9 8 7 6 7 10 11 11 12 12 13 14 15 15 16 19 21 22 22 20 19 18 17 16 15 14 14 14 14 13 13 13 12 11 11 10 9 9 9 8 8 8 8 7 7 7 7 8 8
5 5 5 6 7 8 8 9 9 9 9 10 10 10 10 10 10 10 10 11 11 11 11 12 12 12 12 12 12 11 11 11 10 10 10 10 9 9 9 8 7 8 10 11 11 11 12 13 15 15 15 17 19 21 23 23 21 19 18 17 16 15 15 15 15 15 14 14 13 12 11 11 10 10 9 9 9 9 9 8 8 7 8 8 9
4 4 5 6 7 7 8 9 9 9 9 10 10 10 10 10 10 10 11 11 11 11 11 11 12 12 12 12 12 12 12 11 10 10 10 10 9 9 9 9 8 7 8 9 11 11 11 12 14 15 16 16 15 16 20 23 23 20 19 19 18 17 17 17 17 16 15 15 14 14 13 12 11 10 10 10 9 9 9 9 8 8 8 9 9
3 4 4 6 7 7 8 8 9 10 10 10 10 11 11 11 11 11 11 11 12 12 12 12 12 12 12 12 12 12 12 12 12 11 10 10 10 10 9 9 9 8 8 8 10 10 11 12 13 15 16 16 16 15 16 18 22 23 22 22 21 20 19 18 18 17 17 16 15 15 14 13 12 11 11 11 10 10 10 10 9 9 9 9 10
3 3 4 5 6 7 8 9 9 10 10 10 10 11 11 11 12 12 12 12 12 12 12 12 12 12 12 12 13 13 13 13 13 13 12 11 10 10 10 10 10 9 8 8 9 10 10 11 13 14 14 15 16 16 15 15 17 20 23 24 23 22 21 19 18 19 18 18 17 16 16 15 13 12 12 11 11 11 10 10 10 9 9 9 10
3 3 4 5 6 7 8 9 9 10 10 10 10 11 11 12 12 12 12 12 12 12 12 12 12 13 13 13 13 13 14 14 14 14 14 13 12 11 10 10 11 10 9 9 8 9 9 10 12 14 13 13 15 16 16 15 16 18 21 24 26 24 23 22 21 20 20 20 19 18 17 17 16 14 13 12 12 11 11 11 10 10 9 9 9
3 4 4 5 6 7 7 8 9 10 10 11 11 11 12 12 12 12 12 12 12 12 12 12 12 13 13 14 14 14 15 15 15 15 15 14 14 13 11 11 11 11 10 10 9 9 9 9 10 11 12 13 14 14 15 15 16 18 18 21 24 26 25 24 24 23 22 21 21 20 19 18 18 16 14 13 13 12 12 11 11 10 9 9 9
4 4 5 5 6 6 7 8 9 9 10 11 11 11 12 12 13 13 13 13 13 13 12 12 12 12 13 14 14 15 15 16 16 16 15 15 15 14 13 13 12 12 11 11 11 10 10 9 9 9 9 11 13 14 14 15 16 18 19 18 19 24 26 27 27 26 25 24 23 22 21 20 19 18 17 15 14 14 13 12 11 11 10 9 9
4 5 5 5 6 6 7 8 8 9 10 11 11 12 12 12 13 13 13 14 14 13 13 13 12 12 13 14 15 15 16 16 17 17 16 16 16 15 15 14 13 13 12 11 11 11 11 11 10 9 9 9 11 13 14 15 15 17 18 18 17 20 24 28 30 29 29 28 27 26 24 22 21 20 19 17 16 15 14 13 12 12 11 10 9
4 5 5 5 6 6 6 7 8 9 10 11 12 12 13 13 13 13 14 14 14 15 14 13 13 12 13 14 15 16 16 17 17 17 17 17 16 16 15 15 14 13 13 13 12 12 12 12 11 10 10 9 9 12 14 14 16 16 18 19 19 20 22 27 32 33 32 30 29 27 25 24 22 21 20 18 17 16 15 14 13 13 12 12 11
4 5 5 6 6 7 7 7 8 9 10 11 12 13 13 14 14 14 14 15 15 15 15 14 13 13 13 14 15 16 16 17 17 17 17 17 17 17 16 15 15 14 13 13 13 13 13 13 13 12 11 10 10 11 13 14 15 16 18 19 20 23 25 28 32 33 32 30 28 27 26 25 24 22 21 19 18 17 16 15 15 14 14 13 12
5 6 7 7 8 8 9 9 9 10 11 12 13 13 14 14 14 14 14 14 15 15 16 15 15 14 13 14 15 16 17 18 18 17 16 16 16 17 16 16 15 15 15 14 14 14 14 14 14 13 13 12 12 12 13 15 15 16 18 20 22 25 27 27 28 29 30 31 30 29 28 28 26 25 23 21 20 19 18 17 16 16 15 15 14
7 8 8 9 10 10 11 12 12 13 14 14 15 15 15 15 15 15 14 14 14 15 15 16 15 15 14 15 15 16 18 18 18 17 16 16 16 16 16 16 16 16 16 16 16 16 16 16 16 16 15 14 14 14 14 15 16 17 19 21 24 26 26 26 26 26 28 30 33 33 32 30 29 27 25 24 22 21 20 19 18 18 17 17 16
9 10 11 11 12 12 13 14 15 15 16 16 16 16 16 15 15 14 14 14 14 14 15 16 16 15 15 16 16 17 18 19 19 18 18 17 16 16 16 17 17 16 17 17 17 17 18 18 18 18 17 17 16 17 16 16 17 18 20 22 24 25 25 26 27 27 27 28 31 34 33 32 31 30 28 27 25 24 22 21 20 19 19 18 18
12 13 13 13 14 14 15 16 16 17 17 18 18 17 17 16 15 14 14 14 14 14 15 15 16 16 16 16 16 18 19 19 19 19 19 18 17 17 17 17 18 18 18 19 19 19 19 19 19 19 19 18 18 18 18 19 19 20 21 23 24 25 25 27 28 29 29 28 28 31 33 34 34 32 31 29 28 26 25 24 22 21 20 20 19
15 16 16 16 16 16 17 17 17 18 18 19 18 18 17 16 16 15 14 14 14 14 14 15 16 17 17 17 17 18 19 19 19 19 19 18 18 18 18 18 18 19 20 20 20 20 20 20 20 20 20 20 19 18 18 19 20 21 23 24 25 26 26 28 29 29 29 30 29 29 30 33 35 35 33 31 30 29 28 27 25 24 22 21 21
17 18 18 18 18 18 18 18 18 18 19 19 18 17 16 16 15 14 14 14 14 14 14 15 16 17 17 18 18 19 20 21 20 18 18 18 18 18 19 19 19 19 20 20 20 20 20 20 20 21 21 21 20 19 19 19 20 22 23 25 27 27 27 29 29 29 30 31 31 30 30 31 34 36 36 34 33 32 31 30 28 27 25 23 22
19 19 18 18 18 18 18 18 19 19 19 18 18 16 16 15 15 14 15 15 15 14 14 15 15 17 17 18 19 20 21 22 21 19 18 18 18 18 19 19 20 20 20 20 20 20 20 20 20 21 20 19 18 18 18 19 20 22 24 26 28 28 29 30 30 30 30 31 32 32 32 31 32 34 37 37 36 35 33 32 31 30 28 26 24
19 18 18 18 18 18 18 19 19 20 19 19 18 17 16 15 15 15 15 15 15 15 15 15 16 16 17 18 19 21 22 23 22 21 19 18 18 18 20 21 21 21 21 21 20 20 19 19 20 20 18 17 16 16 17 19 21 22 24 26 28 29 30 31 32 32 32 32 33 33 33 34 33 33 35 38 38 37 35 34 34 32 31 29 28
18 17 17 17 18 18 19 19 19 19 19 19 18 17 16 16 15 15 15 15 15 15 16 16 17 17 17 18 19 21 22 23 23 22 21 20 19 18 19 21 22 22 22 21 21 20 20 19 19 18 17 17 16 17 19 20 21 21 22 24 25 28 30 31 32 34 34 33 34 34 35 36 36 35 35 37 39 39 38 37 36 35 34 33 32
17 17 17 17 18 18 18 19 19 19 19 19 18 17 16 16 15 15 15 15 15 16 17 17 17 17 17 18 19 20 22 22 23 23 23 22 21 20 20 20 22 23 23 22 22 21 21 20 19 18 17 17 18 19 20 20 21 21 21 22 23 24 26 29 31 33 35 35 35 35 36 37 37 37 37 37 38 40 40 40 39 38 38 37 36
16 16 17 18 18 19 19 19 19 19 19 19 18 17 16 16 16 15 15 15 16 17 18 18 18 18 18 18 19 20 22 22 22 23 23 23 23 23 23 21 21 22 23 23 23 23 22 21 19 18 18 18 19 20 20 20 20 21 21 22 22 23 24 26 28 30 33 36 37 37 37 38 39 39 39 38 39 40 41 43 42 42 41 40 39
16 17 17 18 19 19 19 20 20 19 19 19 17 16 16 16 16 15 15 16 16 17 18 18 18 18 19 19 20 21 22 23 22 23 23 23 23 24 25 25 23 23 23 24 24 24 24 22 21 20 19 19 20 20 20 20 22 23 23 24 24 24 25 25 26 27 29 32 35 37 38 39 39 40 40 40 40 40 42 44 45 44 43 42 40
17 18 18 19 20 20 20 20 20 20 20 19 18 17 16 16 16 15 15 16 16 17 18 19 19 20 20 20 20 21 23 24 24 24 23 24 24 24 25 26 26 26 25 24 25 25 24 23 22 21 20 20 21 21 22 23 23 24 25 25 26 26 26 26 27 27 27 28 31 35 38 40 40 41 41 42 42 42 42 44 46 46 45 44 43
19 19 20 21 21 21 20 19 20 20 20 19 19 18 18 18 17 16 16 16 17 18 19 20 20 21 20 20 20 22 23 24 24 24 24 24 24 25 25 26 27 27 27 27 27 27 26 25 23 22 21 21 22 23 25 26 25 25 26 26 27 27 28 28 28 28 27 27 28 31 35 39 41 42 42 43 43 44 44 45 47 47 47 46 45
21 21 22 22 22 21 20 19 19 20 20 20 19 18 18 19 18 17 17 17 18 18 19 20 21 21 20 20 20 21 22 22 22 23 24 24 25 25 25 26 26 27 28 28 29 29 29 28 26 24 23 22 23 25 26 27 27 27 27 27 28 29 29 29 29 29 29 28 28 28 31 35 39 41 42 44 45 45 46 46 47 48 48 47 47
21 22 23 23 23 21 20 19 18 19 20 21 20 19 18 19 18 18 18 18 18 19 20 21 21 21 20 20 20 21 22 21 21 22 24 25 25 25 25 25 26 27 27 28 30 31 31 30 29 28 27 25 25 26 27 28 29 29 29 29 29 30 30 30 29 29 30 30 30 29 29 32 36 40 42 43 45 46 47 47 48 48 49 48 48
21 22 23 24 24 22 21 19 19 19 20 21 20 19 19 19 20 19 18 18 19 19 20 21 21 21 20 21 22 23 23 22 22 22 23 24 24 24 24 25 26 26 27 28 30 32 32 32 31 31 31 30 29 29 30 30 30 30 31 31 31 32 32 31 30 30 31 31 31 31 30 30 33 37 41 42 44 47 48 48 49 49 50 49 49
22 23 23 23 23 23 22 21 19 19 20 21 20 20 19 20 21 20 19 18 18 19 21 22 22 21 20 22 24 24 22 21 21 22 23 24 25 26 26 26 26 27 28 28 29 31 33 33 33 33 33 35 34 34 33 33 33 32 32 33 33 33 34 33 32 30 31 32 32 32 32 32 32 34 38 41 43 46 48 49 50 50 51 51 50
23 23 23 23 23 23 23 22 21 20 20 21 21 20 20 21 21 21 20 18 18 19 21 23 23 22 21 22 24 23 21 21 22 23 26 27 29 30 30 30 29 29 28 27 28 30 33 34 35 35 35 36 37 38 38 37 36 35 34 35 34 34 34 35 34 32 31 32 33 33 33 34 33 33 35 39 42 45 48 49 50 52 52 52 52
25 24 24 24 23 23 23 24 23 22 21 21 21 20 20 21 21 21 20 19 19 20 21 23 23 22 22 23 23 22 21 22 24 26 28 29 30 31 31 31 31 30 29 28 28 30 32 33 35 37 38 37 37 38 40 40 39 37 37 37 36 35 36 36 37 35 33 32 33 34 34 34 35 35 35 37 40 43 47 49 50 52 53 53 53
27 26 25 25 24 24 24 25 26 24 22 22 22 21 21 22 22 22 21 21 20 21 22 23 23 23 23 23 23 22 23 24 26 27 28 29 30 30 31 32 32 31 30 29 29 30 32 33 34 36 39 40 39 39 40 41 41 40 39 39 39 38 37 38 39 38 36 34 33 34 34 34 35 36 36 36 38 40 45 48 50 51 53 55 55
29 29 27 27 27 27 26 26 27 27 25 24 23 23 22 23 23 23 22 22 21 22 23 23 24 24 25 26 25 25 25 26 27 28 29 29 30 31 31 32 32 32 32 32 31 30 32 34 34 36 38 40 41 42 42 42 42 41 40 40 41 40 39 40 41 41 40 37 36 35 35 35 35 36 37 38 38 39 41 46 50 51 53 55 56
33 32 31 30 29 29 30 30 29 29 28 27 26 25 25 25 26 25 24 23 23 23 24 25 25 25 27 28 29 28 28 28 29 30 31 32 32 32 33 33 33 33 33 33 33 32 33 34 35 37 38 39 41 43 44 44 44 44 43 42 42 42 42 43 43 43 41 40 38 37 36 36 36 36 37 38 39 39 40 42 47 51 52 54 56
37 35 35 34 32 32 34 34 33 32 31 30 28 27 27 28 28 27 26 25 24 24 25 26 26 27 28 29 31 31 31 31 31 32 33 35 35 35 34 34 34 34 34 35 36 35 33 34 36 38 39 39 40 42 44 45 46 46 46 45 45 45 45 45 45 43 42 41 40 38 37 37 37 37 38 38 39 40 40 40 44 48 52 53 55
37 38 37 36 36 37 39 38 36 34 33 32 30 29 28 29 29 28 28 28 26 26 27 27 27 28 29 30 31 33 33 32 32 33 35 37 38 38 37 36 36 35 35 36 37 37 35 35 37 40 41 40 40 41 44 46 47 48 48 48 48 48 48 47 46 43 42 41 40 40 38 38 38 39 39 39 40 40 41 41 41 45 49 53 55
33 35 35 36 38 40 40 39 37 35 34 33 31 30 29 29 29 30 30 30 29 28 28 27 27 28 30 31 32 33 32 31 32 34 36 39 40 40 39 39 38 37 37 37 38 39 38 38 40 42 43 43 42 42 44 46 48 48 49 50 50 49 48 47 46 44 42 41 41 41 40 39 39 40 40 41 41 41 41 42 41 42 46 50 54
32 31 30 32 34 36 37 37 37 37 36 34 32 30 30 30 31 31 32 31 30 31 30 29 29 29 30 32 32 32 32 31 32 35 38 40 42 42 42 43 42 40 39 39 39 39 41 42 43 44 45 45 45 44 45 46 47 47 48 49 49 49 49 47 45 43 42 41 41 41 41 40 40 41 41 42 42 42 42 43 42 42 43 47 51
29 29 29 30 30 31 33 35 36 38 37 34 32 32 32 32 32 32 32 32 32 32 32 31 31 31 32 33 33 34 33 32 34 37 39 42 43 44 46 46 44 43 42 41 40 40 41 44 46 48 49 48 46 45 44 44 43 43 45 47 49 50 50 48 45 43 42 42 42 42 42 41 41 42 43 43 43 43 44 43 43 44 44 45 48
26 28 29 30 30 29 30 32 34 35 35 34 33 32 32 33 33 33 33 33 33 34 34 33 32 33 34 34 35 35 35 35 36 39 41 43 45 47 48 47 45 44 44 43 41 40 41 43 46 48 49 48 45 43 42 41 41 43 46 49 51 52 51 48 45 42 42 43 43 44 43 42 42 42 43 44 44 44 45 45 44 44 45 45 46
28 30 31 30 29 28 29 30 32 32 33 33 32 31 31 32 33 34 33 33 33 35 35 34 34 34 34 35 36 36 36 37 38 41 43 45 46 47 47 46 45 46 44 41 40 40 41 43 45 47 47 46 43 42 42 43 45 48 49 51 52 53 51 48 44 41 42 43 43 44 44 44 43 43 43 44 45 45 46 46 45 45 46 47 47
32 33 34 32 30 28 29 30 31 30 31 32 31 30 31 32 33 34 33 33 34 35 36 36 35 35 35 35 37 38 38 39 40 42 44 46 47 47 46 47 48 45 41 40 40 41 43 45 46 46 46 45 45 46 46 48 50 52 52 52 52 52 50 46 41 40 42 44 43 43 43 44 45 44 43 43 44 45 46 47 47 48 48 48 49
33 35 36 33 29 28 29 31 31 30 31 32 31 30 33 35 35 34 33 34 35 35 35 36 36 35 35 36 38 39 40 40 42 44 45 48 49 48 47 48 46 41 39 41 43 44 46 47 46 45 45 46 47 49 50 51 52 53 52 52 52 51 49 45 40 39 42 45 45 43 42 43 45 44 42 43 43 44 46 47 48 49 50 51 51
33 35 35 33 29 29 30 30 30 30 30 32 32 32 33 34 33 32 33 34 34 34 35 36 36 36 36 37 39 40 41 42 43 45 47 50 52 49 47 45 42 40 42 43 44 45 47 46 45 43 44 46 48 50 52 52 52 52 51 50 50 48 46 44 41 40 42 43 44 43 40 41 44 44 42 42 43 43 45 46 48 49 51 53 53
33 33 32 31 30 30 31 31 30 29 28 29 29 29 29 29 30 31 32 33 34 34 35 35 36 36 37 39 40 41 42 44 44 46 51 53 52 48 45 42 42 44 46 45 44 45 45 44 43 42 44 47 50 50 50 51 50 50 50 48 46 45 43 42 42 42 41 42 43 41 39 39 43 44 42 42 42 42 44 46 47 49 52 55 56
32 30 30 30 30 29 31 32 30 28 25 25 26 28 27 27 28 28 30 32 34 34 35 36 36 36 38 39 40 42 44 44 45 50 54 54 51 47 44 43 44 46 47 46 46 46 45 44 43 44 46 48 48 47 47 49 49 49 49 46 43 42 41 42 42 41 40 40 41 40 38 39 42 43 41 41 41 41 43 45 47 49 52 55 58
31 29 30 32 32 30 31 33 31 28 25 25 27 27 26 25 26 27 29 32 34 35 36 37 37 37 39 40 41 43 44 44 48 53 55 52 50 47 45 45 46 46 47 48 48 46 44 44 44 44 45 45 45 45 46 47 48 49 48 45 41 41 41 41 40 39 39 39 39 39 38 39 42 42 40 41 41 40 42 45 46 49 53 57 59
32 31 31 32 32 31 33 34 33 29 27 28 29 27 25 25 27 28 30 32 34 37 38 39 38 38 40 41 42 44 44 47 52 55 53 50 49 48 46 46 47 47 48 49 48 45 43 42 42 42 41 42 43 44 45 47 47 47 46 43 40 41 42 41 39 38 37 36 37 39 38 38 41 42 39 39 41 41 42 44 46 50 54 58 59
32 32 32 31 31 33 36 35 33 32 31 31 31 29 28 27 28 29 31 33 35 38 39 39 38 39 40 42 43 44 47 52 56 54 49 48 48 48 47 48 48 49 49 49 47 43 40 40 40 40 40 41 42 44 45 46 45 44 43 41 40 40 40 40 39 37 35 34 35 38 38 38 41 42 40 39 42 43 44 45 48 51 55 58 60
32 31 32 31 31 35 37 35 35 36 35 35 34 32 31 30 30 30 32 34 36 38 38 38 38 38 40 42 45 48 51 55 55 50 47 47 48 48 49 50 50 50 49 49 46 42 39 39 40 40 40 41 42 43 44 44 43 42 41 40 39 38 37 37 36 34 32 32 34 36 36 36 39 41 41 42 43 44 46 48 49 50 54 59 60
31 29 30 31 31 34 36 36 37 37 36 37 37 35 35 34 33 33 33 34 36 38 38 37 36 37 40 44 47 51 54 53 50 47 47 48 48 49 50 51 51 50 49 48 45 42 40 40 40 40 39 41 43 43 43 43 42 40 40 40 38 37 36 34 32 31 31 31 33 34 35 35 36 39 42 45 46 45 47 49 48 48 52 58 60
Wind_Direction
63 57 52 49 47 46 48 47 44 43 42 41 41 41 40 35 32 31 28 28 30 28 24 21 19 18 15 13 12 11 11 11 12 14 15 15 11 2 349 331 305 292 286 281 276 274 271 269 266 261 255 252 250 245 239 234 233 236 239 240 238 239 242 242 240 239 238 236 234 237 242 244 242 243 245 248 252 256 259 257 253 250 245 240 233
51 47 44 38 33 31 34 34 29 28 30 28 27 29 27 24 21 19 18 18 21 22 20 17 14 13 11 10 8 6 6 6 4 4 6 9 11 8 359 352 334 309 295 286 280 275 270 268 266 264 265 262 257 252 245 239 235 236 238 241 241 240 242 245 243 240 240 241 239 236 237 241 242 241 242 245 248 253 257 256 253 249 244 238 231
45 38 31 24 20 19 19 18 12 12 16 14 13 15 13 10 10 8 6 6 9 13 15 12 9 7 5 4 3 1 359 359 359 358 359 360 2 2 358 354 350 339 316 298 288 280 273 267 265 266 268 269 268 265 257 246 239 237 237 238 239 239 241 244 247 245 242 243 245 243 239 239 241 242 241 242 245 249 254 254 252 249 245 238 232
41 28 16 11 9 8 6 2 1 2 3 1 1 3 1 359 360 358 356 356 358 3 6 5 3 1 359 357 356 355 353 352 352 354 355 354 354 353 351 347 347 348 341 321 304 291 280 272 269 268 267 267 268 269 269 257 245 239 238 238 236 235 236 238 244 248 247 245 245 247 245 241 240 242 241 240 243 247 251 253 251 248 245 239 234
24 13 1 356 357 358 355 353 353 353 352 352 352 353 352 350 349 349 347 348 350 355 357 357 355 354 352 351 350 349 348 345 345 347 349 349 349 347 344 341 339 341 344 339 324 309 293 281 275 271 269 270 269 268 271 269 257 247 242 241 240 237 235 234 238 243 246 245 244 246 247 244 240 240 242 241 240 244 249 252 251 249 247 240 235
3 357 349 344 346 349 347 346 345 344 344 345 346 346 344 342 340 339 339 340 344 347 349 350 349 347 346 346 346 344 342 340 340 341 343 342 343 342 340 335 333 335 338 339 334 323 310 295 283 277 274 272 270 269 269 268 264 257 248 243 242 241 239 236 234 237 242 244 243 243 245 246 241 237 238 241 241 241 245 250 251 250 248 243 236
351 348 345 342 343 344 342 339 340 340 339 340 342 341 338 336 334 334 334 334 337 339 341 344 344 341 340 341 341 340 338 336 337 337 337 337 337 337 336 332 328 329 332 332 330 327 322 313 299 288 280 273 269 268 266 264 261 260 258 251 245 242 240 238 235 233 235 239 242 242 242 244 243 238 234 235 238 239 241 245 249 249 248 244 239
348 348 347 346 342 340 338 337 337 337 337 337 337 336 334 332 331 330 330 331 332 333 335 338 339 338 337 337 338 338 336 334 333 332 332 332 333 333 333 331 327 324 325 325 324 324 323 321 317 309 295 283 276 271 267 265 262 261 264 263 255 246 240 238 237 233 231 233 235 237 238 241 243 240 235 232 232 235 237 240 245 247 246 244 240
355 353 349 344 340 339 337 334 334 335 334 334 334 332 331 329 328 327 327 329 330 331 333 334 335 336 336 336 336 335 334 332 330 329 329 330 330 330 329 328 324 320 318 317 318 317 317 317 319 319 314 300 286 278 271 267 265 263 262 262 259 251 241 238 237 235 233 231 230 231 232 234 238 241 238 234 232 233 235 237 242 246 245 242 239
356 349 344 337 333 333 332 329 330 333 333 333 332 331 329 328 326 325 325 327 329 329 330 329 331 333 334 335 335 334 333 330 328 327 327 328 328 327 326 325 322 318 313 311 311 310 310 312 314 315 315 308 296 286 278 270 266 264 261 258 256 252 246 240 237 235 235 233 232 232 232 231 233 238 240 239 236 235 235 237 240 244 246 243 237
346 338 334 332 329 328 326 327 329 332 333 333 332 331 329 328 327 325 324 325 326 326 325 324 326 329 331 333 333 333 332 329 326 325 325 326 326 325 324 323 320 317 313 309 307 306 305 306 307 307 305 302 297 291 285 277 269 264 262 258 255 252 248 243 238 235 236 237 237 237 237 236 235 235 238 239 238 237 236 237 239 241 244 244 239
335 330 329 327 325 323 321 322 325 328 330 331 330 329 328 328 326 323 322 321 321 320 319 319 321 325 327 330 332 332 331 329 325 324 324 325 324 322 321 320 318 316 314 311 308 305 303 302 300 299 297 294 291 287 285 281 275 268 264 260 256 252 250 250 247 244 241 239 239 238 236 237 235 233 234 236 237 236 235 235 236 238 241 242 240
323 321 321 319 317 316 315 317 320 324 325 325 325 324 324 324 323 321 318 315 314 314 314 315 318 321 324 327 330 331 330 328 325 323 322 322 322 319 317 316 314 313 311 310 308 305 303 301 299 296 293 290 287 284 281 280 277 273 267 262 258 255 255 257 257 255 251 243 239 238 236 236 236 234 233 234 235 236 235 232 232 233 236 239 240
314 312 310 309 309 310 311 314 317 319 318 318 319 319 318 318 317 315 312 310 310 309 310 311 313 317 320 324 327 329 330 328 325 323 321 320 318 316 314 312 310 310 308 306 305 304 303 301 299 296 292 289 285 283 280 277 274 270 266 264 261 259 257 257 256 256 255 249 244 240 238 237 237 236 235 234 234 235 236 235 232 230 231 233 237
311 307 304 303 304 305 308 310 312 312 312 312 313 313 314 313 312 311 308 308 307 305 305 306 310 313 316 321 323 324 328 328 324 322 320 318 316 313 312 310 309 309 307 306 305 304 304 302 300 298 294 289 284 281 279 276 274 270 267 265 263 259 256 254 254 255 255 254 250 245 240 239 238 236 236 235 235 235 236 237 236 233 231 230 232
313 309 305 303 302 302 303 304 304 306 307 307 308 309 310 311 309 308 307 305 303 302 302 303 307 310 313 317 318 321 324 325 323 320 317 315 313 310 309 308 307 307 305 305 304 304 303 303 303 301 297 292 286 282 278 276 274 273 271 269 267 263 258 254 253 254 255 255 253 250 246 243 241 238 237 236 235 235 236 237 237 235 233 231 230
313 311 308 305 303 301 299 299 299 301 302 304 305 306 308 308 308 307 306 304 302 300 300 302 305 308 311 313 315 318 322 323 322 320 316 313 312 309 307 306 304 303 302 302 302 301 301 301 301 301 297 293 288 284 282 280 277 275 273 272 270 268 265 262 257 254 254 254 254 253 251 248 244 241 239 237 235 235 235 236 236 235 233 232 231
310 310 308 305 303 301 299 299 299 300 302 305 306 305 306 308 308 308 307 304 302 300 299 301 302 304 308 311 314 317 320 322 322 320 317 314 312 309 307 306 305 304 302 302 301 299 299 301 302 301 297 291 288 286 287 287 286 283 278 274 272 270 268 266 264 260 255 254 253 253 252 250 247 244 241 239 237 235 234 235 236 236 235 232 230
305 306 306 304 302 302 301 302 302 304 306 309 309 306 306 309 309 308 306 303 301 300 299 299 300 301 305 309 313 316 319 321 320 319 317 314 311 309 308 307 306 305 304 302 301 299 298 301 303 302 297 292 289 291 294 295 294 290 285 280 275 272 270 267 266 264 260 256 253 252 250 250 248 246 244 241 238 236 235 235 235 236 236 234 230
300 302 303 302 302 302 304 305 306 307 310 312 310 306 306 308 308 307 304 302 300 299 298 297 298 300 304 308 312 315 318 320 319 318 317 313 310 309 308 309 308 307 304 302 300 299 298 299 301 299 295 293 295 300 302 301 300 297 293 287 282 277 273 270 267 265 263 259 255 252 250 249 248 246 245 243 240 237 236 236 235 234 235 234 231
296 300 300 300 302 304 306 307 308 309 311 311 309 305 305 307 306 304 302 301 299 297 296 295 297 300 304 308 312 314 317 318 317 316 316 314 313 311 310 310 310 308 305 302 301 299 298 298 298 296 294 295 299 301 300 300 302 302 300 297 292 286 281 275 270 267 265 262 259 255 251 250 248 246 244 243 241 239 237 236 235 234 233 233 231
293 296 297 299 302 304 307 309 309 310 311 310 306 302 302 303 303 301 299 298 297 296 295 295 297 301 305 309 311 313 314 315 315 314 314 314 314 314 313 311 310 308 306 304 303 302 300 297 295 294 294 295 298 298 299 301 304 306 305 304 301 296 291 285 279 273 267 264 261 258 254 251 249 247 245 243 242 240 238 237 236 235 235 234 233
291 293 295 299 303 306 309 310 310 310 310 308 303 299 299 299 299 297 297 296 296 296 296 297 301 304 307 310 312 312 312 313 313 311 311 312 312 313 313 312 311 308 306 307 306 305 302 297 293 292 293 295 298 301 303 305 307 308 308 307 306 303 298 292 288 282 275 269 264 260 257 254 251 248 245 243 242 241 240 238 237 235 235 236 236
292 295 298 302 306 309 310 310 309 309 308 305 300 296 295 296 295 295 295 296 297 297 298 300 303 306 308 311 312 312 311 311 310 308 307 308 309 310 310 310 309 308 308 308 308 307 305 299 294 292 292 295 300 304 307 307 306 307 308 308 308 307 303 297 291 287 283 277 270 263 259 256 253 250 247 243 241 241 240 238 237 236 235 235 235
296 298 301 304 308 310 310 309 308 307 306 303 298 293 293 294 294 294 296 298 299 300 301 303 305 307 309 311 313 313 310 307 305 304 304 305 306 307 307 306 306 306 307 308 307 306 305 303 298 294 294 297 302 306 307 306 305 305 306 307 308 307 306 301 293 288 285 282 277 269 261 257 255 252 249 246 242 240 239 238 238 237 235 234 234
298 300 302 304 306 308 308 307 306 305 304 301 297 294 293 294 293 294 297 299 301 302 303 304 305 306 307 310 314 316 313 308 304 303 304 305 305 304 304 303 302 302 303 305 305 304 302 301 300 298 297 299 302 304 305 305 304 305 306 307 307 307 305 302 295 288 284 281 279 274 267 260 256 253 251 248 245 242 239 239 238 237 236 235 234
297 298 300 302 304 306 306 305 304 303 301 299 297 295 294 294 293 294 297 300 302 304 304 304 303 303 305 309 313 316 315 312 309 309 309 309 308 305 302 301 300 299 300 302 303 302 300 299 298 297 298 298 299 301 302 302 304 305 306 306 306 306 304 302 297 290 285 281 278 276 271 265 259 255 252 249 247 245 241 239 239 238 237 236 234
293 295 297 299 302 305 304 303 302 301 299 298 297 295 293 294 294 294 296 300 303 304 303 301 301 301 303 307 311 314 313 310 309 311 314 315 315 311 306 302 300 301 301 301 301 301 300 300 298 295 294 294 294 295 296 299 301 303 304 305 304 304 303 302 299 294 287 282 279 276 273 269 263 258 254 250 247 246 244 241 240 239 238 237 235
290 292 294 296 299 302 302 300 300 300 298 297 296 294 292 293 294 293 294 299 302 301 300 300 301 301 302 306 312 314 313 309 309 310 313 315 315 314 312 309 306 304 302 301 300 299 300 300 300 297 295 293 291 291 291 293 296 298 300 301 301 302 302 301 300 297 291 286 281 277 274 271 267 262 258 253 248 246 246 243 241 240 239 238 237
289 291 292 293 295 297 297 298 299 299 298 297 295 292 289 290 292 291 292 297 300 299 299 301 301 299 301 308 313 315 316 314 312 311 311 312 312 313 313 312 310 307 303 300 298 297 298 299 300 299 296 294 293 292 292 292 293 296 297 297 298 300 301 301 300 297 293 288 283 279 275 272 269 265 261 257 252 247 246 245 242 241 240 239 237
292 292 292 292 292 293 294 296 297 298 297 296 294 290 287 288 290 290 292 296 298 299 300 302 301 298 300 307 311 314 318 319 318 318 317 316 314 313 312 311 310 307 304 300 297 296 296 297 297 297 296 294 293 293 293 293 294 295 296 296 297 299 300 300 300 297 294 289 283 279 276 273 269 266 263 260 256 250 246 245 244 242 241 240 238
293 294 295 293 291 289 291 293 294 295 296 295 294 291 287 287 290 290 291 293 296 297 298 300 301 298 296 300 305 310 315 318 320 321 322 320 317 314 312 310 308 305 302 299 297 295 295 295 295 295 294 294 294 293 293 294 295 296 296 297 297 298 299 299 298 297 294 289 284 278 275 273 270 267 264 262 259 254 248 245 245 243 241 240 239
293 293 296 296 292 288 287 287 288 290 293 293 292 291 289 289 291 290 289 291 295 297 298 299 300 298 295 293 296 301 307 313 318 320 321 321 319 316 313 310 307 303 299 297 295 294 294 294 295 295 294 295 295 294 294 294 295 296 296 296 297 297 297 297 296 295 293 289 285 279 275 272 269 267 265 262 261 258 252 247 244 244 243 241 240
294 293 293 293 291 288 286 284 285 288 290 290 288 288 289 290 290 289 288 290 292 295 297 297 299 299 296 293 291 293 298 305 312 316 318 319 320 318 315 312 308 303 298 294 292 291 292 293 294 294 295 295 295 294 294 294 294 295 296 296 296 295 294 294 294 293 291 289 285 280 276 272 270 267 265 263 261 260 257 251 246 243 243 242 241
293 292 290 288 287 288 288 285 285 288 289 288 286 285 286 289 288 285 284 286 289 292 294 295 296 297 296 294 292 291 293 297 304 311 314 317 320 319 316 313 309 304 299 294 290 289 289 291 292 292 293 294 293 292 292 291 292 293 293 294 293 293 292 292 291 291 289 286 283 279 275 273 271 269 266 264 261 260 259 256 251 245 242 242 241
294 293 290 286 287 290 290 286 285 287 289 287 285 284 285 287 285 281 281 285 288 290 291 293 293 294 295 294 294 293 293 294 300 306 311 315 318 318 316 314 310 306 301 295 290 287 287 288 291 291 290 290 289 289 288 288 289 290 291 291 291 291 291 290 289 288 286 284 281 278 275 272 271 270 267 265 262 260 258 257 255 250 244 241 241
304 302 296 290 289 290 290 286 282 286 289 287 285 284 284 284 282 281 282 285 288 290 290 290 291 292 293 294 295 295 294 294 298 304 308 312 314 316 316 314 312 308 304 298 292 288 285 286 289 291 290 289 287 287 286 286 287 288 288 289 289 289 289 288 288 286 284 282 279 275 273 272 270 269 268 266 264 261 259 257 256 254 249 244 241
306 308 305 301 295 292 291 288 285 287 287 285 284 284 283 282 281 281 283 286 289 291 291 291 291 292 293 295 297 297 295 294 297 303 306 309 312 314 314 313 310 308 305 300 294 289 286 286 288 290 291 291 289 288 286 285 286 287 288 288 288 289 288 287 286 285 283 280 276 273 271 270 270 269 267 266 264 262 260 258 256 255 253 249 244
305 308 309 309 304 297 295 293 291 290 286 283 283 283 281 281 281 282 285 286 290 293 293 292 293 295 297 299 299 299 296 295 297 302 305 308 311 313 313 311 310 308 305 300 295 290 288 287 288 289 290 292 292 290 287 286 287 288 289 289 289 289 288 287 286 284 281 277 274 271 269 268 268 268 267 265 264 263 261 259 257 255 253 251 248
307 309 309 309 307 302 298 296 294 293 289 284 282 280 279 279 281 284 286 287 291 295 294 293 294 295 297 298 299 298 296 294 297 301 304 307 311 312 312 310 310 308 305 300 295 292 290 290 290 291 292 294 294 291 288 288 289 291 293 292 290 289 288 288 287 283 278 275 273 272 270 268 266 265 265 265 264 263 261 260 257 255 254 252 250
307 309 309 310 309 304 299 296 294 294 292 287 282 278 277 279 283 285 285 287 291 294 293 292 292 293 295 297 298 297 295 294 297 301 304 308 311 312 311 309 308 306 302 298 297 296 295 295 295 295 295 295 293 290 288 290 292 295 295 293 290 288 288 288 286 283 277 273 271 271 271 270 267 265 264 264 263 262 261 260 258 256 254 252 250
307 306 307 308 307 303 299 295 293 293 291 285 279 276 275 278 285 287 285 287 291 292 291 290 290 290 293 295 295 294 293 294 296 300 304 309 312 311 308 306 306 303 299 297 299 299 298 298 298 296 294 292 292 292 291 292 294 295 295 292 289 288 289 289 287 281 277 274 272 270 270 270 267 265 263 263 263 262 262 261 260 258 256 253 250
302 300 301 301 300 299 298 296 294 293 290 283 278 276 275 278 284 287 286 288 292 292 290 289 288 289 290 291 291 291 292 293 295 299 306 310 310 309 307 305 303 301 299 300 300 299 298 298 297 295 292 290 292 294 295 294 294 294 293 291 290 289 290 291 287 278 275 275 274 271 269 269 268 265 263 262 262 262 262 261 260 260 258 256 251
297 295 297 296 293 296 298 296 294 291 286 281 279 279 278 279 283 287 289 292 294 292 289 287 286 287 288 288 289 289 291 293 296 301 307 309 308 307 306 303 301 299 300 301 300 299 298 298 298 295 292 291 293 296 296 295 294 293 292 292 292 292 292 291 284 277 275 276 275 272 269 268 268 266 264 263 262 262 262 262 261 260 260 258 254
295 292 294 292 289 293 297 296 291 284 278 276 278 279 280 282 286 291 294 296 296 293 291 287 285 285 285 287 288 289 290 293 298 304 308 307 306 306 304 301 299 299 301 301 301 300 298 296 296 294 292 294 296 296 296 295 294 294 293 293 293 292 290 286 281 278 278 278 276 272 269 267 268 266 265 265 264 263 263 262 262 261 260 259 257
294 288 288 289 288 290 294 293 287 277 271 272 276 278 281 286 289 293 296 298 298 295 292 289 286 284 284 286 287 288 290 295 301 305 307 306 306 305 302 299 299 300 302 302 303 302 297 295 295 294 295 297 297 296 295 295 295 294 294 294 292 289 285 282 280 280 281 280 276 272 269 268 268 267 266 265 264 264 263 263 263 263 262 260 258
294 287 286 289 290 289 291 290 283 271 265 269 274 275 280 285 287 290 294 297 297 295 293 290 287 285 284 284 284 286 291 297 302 305 306 305 304 303 301 300 301 302 303 303 303 302 299 296 295 295 297 297 296 296 296 295 295 295 295 294 290 284 281 281 282 283 283 280 278 275 272 270 270 268 266 266 265 264 263 264 264 265 263 261 259
294 289 287 290 290 289 290 288 280 270 262 263 268 270 274 279 285 289 293 294 294 293 293 291 287 284 283 282 284 288 293 299 303 305 305 303 302 302 302 303 303 303 303 303 303 302 299 296 296 297 298 298 297 298 297 297 297 296 295 293 289 283 281 281 282 284 282 280 279 278 275 272 272 271 268 268 267 265 264 266 267 267 265 262 259
291 289 288 288 288 290 290 284 276 269 262 259 263 266 269 276 284 289 291 293 293 293 292 289 285 283 283 285 287 291 295 300 303 304 303 301 301 302 303 304 303 303 303 303 303 301 297 296 297 299 300 299 298 298 299 298 298 296 294 293 290 287 284 283 283 283 281 279 279 279 276 274 274 274 272 270 269 268 268 268 269 269 266 263 259
290 290 291 291 290 292 289 279 269 267 263 258 259 262 266 273 283 288 290 293 294 293 291 287 284 284 287 289 291 293 296 300 302 302 301 301 302 303 303 303 303 303 303 303 302 299 297 296 297 298 299 300 299 299 300 300 299 297 295 294 293 291 287 285 285 283 281 281 281 280 278 276 275 276 276 273 271 271 272 272 272 271 267 263 259
289 291 293 293 293 291 283 270 263 263 262 259 259 261 264 269 277 285 290 293 294 293 289 285 285 288 292 294 294 295 297 299 300 301 301 302 302 303 303 303 303 303 303 302 301 299 297 297 298 297 297 298 299 300 300 300 300 299 298 298 297 294 291 289 288 285 284 284 283 281 280 279 277 277 278 276 273 273 274 275 275 271 265 262 259
Height
5934 5934 5934 5934 5934 5934 5934 5933 5933 5932 5932 5931 5931 5931 5930 5929 5929 5928 5927 5927 5926 5925 5923 5922 5921 5920 5919 5918 5917 5916 5916 5915 5914 5913 5913 5912 5912 5911 5910 5909 5908 5907 5907 5907 5908 5908 5908 5908 5908 5909 5909 5909 5909 5910 5910 5910 5910 5911 5912 5913 5913 5914 5915 5915 5916 5916 5916 5916 5916 5917 5917 5917 5917 5917 5917 5917 5917 5917 5917 5916 5916 5916 5916 5915 5915
5934 5934 5934 5934 5934 5934 5933 5933 5933 5932 5932 5931 5931 5930 5930 5929 5929 5928 5927 5926 5926 5925 5924 5923 5922 5921 5920 5919 5918 5917 5916 5915 5914 5913 5912 5912 5911 5910 5909 5908 5907 5906 5906 5905 5905 5906 5906 5906 5906 5906 5907 5907 5907 5908 5908 5909 5910 5911 5912 5913 5913 5913 5914 5914 5915 5915 5915 5916 5916 5916 5916 5916 5916 5916 5916 5916 5916 5916 5916 5916 5916 5915 5915 5915 5915
5935 5935 5934 5934 5934 5933 5933 5933 5932 5932 5931 5931 5930 5930 5929 5929 5928 5927 5927 5926 5925 5925 5924 5923 5922 5921 5920 5919 5918 5917 5916 5915 5914 5913 5912 5911 5911 5910 5908 5907 5906 5906 5905 5904 5904 5904 5904 5904 5904 5904 5905 5905 5905 5906 5906 5907 5908 5910 5911 5911 5912 5912 5912 5913 5914 5914 5915 5915 5916 5916 5916 5916 5916 5916 5916 5916 5916 5916 5916 5916 5916 5915 5915 5915 5915
5935 5935 5934 5934 5934 5933 5933 5932 5932 5932 5931 5931 5930 5929 5929 5928 5927 5927 5926 5926 5925 5924 5923 5922 5922 5921 5920 5918 5917 5916 5915 5914 5914 5913 5912 5911 5910 5909 5908 5907 5906 5905 5904 5903 5902 5902 5902 5902 5902 5903 5903 5903 5903 5904 5904 5905 5906 5908 5909 5909 5909 5909 5910 5911 5913 5914 5914 5915 5915 5916 5916 5916 5915 5915 5915 5915 5915 5916 5916 5916 5915 5915 5915 5915 5915
5936 5935 5935 5934 5934 5933 5933 5932 5932 5932 5931 5931 5930 5929 5928 5927 5927 5926 5926 5925 5924 5923 5922 5922 5921 5920 5919 5918 5917 5916 5915 5914 5913 5912 5911 5910 5910 5909 5907 5906 5905 5904 5904 5903 5902 5901 5900 5901 5901 5900 5902 5902 5902 5903 5903 5904 5905 5906 5907 5907 5907 5908 5908 5910 5911 5912 5913 5913 5913 5914 5915 5915 5915 5914 5914 5914 5915 5915 5915 5915 5915 5915 5915 5914 5914
5936 5935 5935 5934 5934 5933 5933 5932 5932 5931 5931 5930 5930 5929 5928 5927 5927 5926 5925 5924 5924 5923 5922 5921 5920 5919 5918 5917 5916 5915 5914 5913 5912 5911 5910 5909 5909 5908 5907 5906 5905 5904 5903 5902 5901 5900 5899 5899 5899 5899 5900 5901 5901 5902 5902 5902 5903 5903 5903 5904 5905 5906 5907 5908 5909 5909 5911 5911 5911 5912 5913 5914 5914 5913 5913 5913 5914 5914 5914 5915 5915 5915 5915 5914 5914
5936 5935 5935 5934 5934 5933 5933 5932 5932 5931 5931 5930 5929 5929 5928 5927 5926 5926 5925 5924 5923 5922 5921 5920 5919 5918 5917 5916 5915 5914 5913 5912 5911 5910 5909 5908 5908 5907 5906 5905 5904 5903 5902 5901 5901 5900 5899 5898 5898 5898 5899 5899 5900 5900 5900 5900 5900 5900 5900 5901 5902 5904 5906 5906 5906 5906 5907 5908 5909 5910 5910 5911 5912 5912 5912 5912 5912 5913 5913 5914 5914 5914 5914 5914 5914
5936 5935 5935 5934 5934 5933 5932 5932 5931 5931 5930 5929 5929 5928 5927 5927 5926 5925 5924 5923 5922 5921 5920 5919 5918 5917 5916 5915 5914 5913 5912 5911 5910 5909 5908 5907 5907 5906 5905 5904 5903 5902 5901 5900 5899 5899 5898 5898 5897 5897 5897 5897 5897 5897 5897 5897 5897 5897 5898 5900 5901 5902 5903 5904 5904 5904 5904 5905 5906 5907 5908 5909 5910 5910 5910 5910 5910 5911 5912 5913 5913 5913 5914 5914 5914
5936 5935 5934 5934 5933 5933 5932 5931 5931 5930 5930 5929 5928 5927 5927 5926 5925 5924 5923 5922 5921 5920 5919 5918 5917 5916 5915 5914 5913 5912 5911 5910 5908 5907 5907 5906 5906 5905 5904 5903 5902 5901 5900 5899 5898 5897 5896 5896 5896 5896 5895 5895 5895 5894 5894 5895 5895 5896 5896 5897 5898 5899 5900 5900 5900 5900 5900 5900 5902 5903 5904 5905 5907 5908 5909 5909 5909 5910 5911 5912 5912 5913 5913 5913 5913
5935 5935 5934 5934 5933 5932 5932 5931 5930 5930 5929 5928 5927 5926 5926 5925 5924 5923 5922 5921 5920 5919 5918 5917 5916 5915 5914 5913 5912 5911 5910 5908 5907 5906 5905 5904 5904 5903 5903 5902 5901 5900 5899 5898 5898 5897 5895 5894 5894 5894 5894 5894 5893 5892 5892 5892 5893 5894 5894 5895 5896 5896 5896 5895 5894 5895 5896 5898 5899 5901 5902 5903 5904 5906 5907 5908 5909 5909 5910 5911 5912 5912 5913 5913 5913
5935 5934 5934 5933 5932 5932 5931 5931 5930 5929 5929 5928 5927 5926 5925 5924 5923 5922 5921 5920 5919 5918 5917 5916 5915 5914 5913 5912 5911 5910 5908 5907 5906 5905 5903 5902 5902 5901 5900 5900 5899 5899 5898 5897 5896 5896 5895 5894 5893 5893 5893 5892 5892 5891 5890 5890 5891 5891 5892 5892 5892 5892 5890 5889 5889 5892 5894 5897 5900 5901 5903 5903 5904 5904 5906 5907 5907 5908 5909 5910 5911 5911 5912 5912 5912
5934 5934 5933 5933 5932 5931 5931 5930 5929 5929 5928 5927 5926 5925 5924 5923 5922 5921 5920 5918 5917 5917 5916 5915 5914 5913 5912 5911 5910 5909 5907 5906 5904 5903 5902 5901 5900 5899 5898 5898 5897 5896 5896 5895 5895 5894 5894 5893 5892 5892 5891 5891 5890 5890 5889 5888 5888 5888 5889 5888 5888 5887 5886 5887 5890 5892 5894 5896 5898 5899 5900 5900 5901 5902 5903 5904 5905 5906 5907 5907 5908 5909 5910 5911 5911
5933 5933 5933 5932 5931 5931 5930 5929 5928 5927 5927 5926 5925 5924 5923 5922 5920 5919 5918 5917 5917 5916 5914 5913 5912 5912 5910 5909 5909 5907 5906 5904 5903 5902 5901 5899 5898 5897 5896 5895 5895 5894 5894 5893 5893 5892 5892 5892 5891 5891 5890 5889 5889 5888 5887 5887 5886 5886 5885 5884 5883 5884 5886 5888 5890 5891 5892 5894 5894 5895 5896 5897 5898 5899 5900 5901 5902 5903 5904 5905 5906 5907 5908 5909 5910
5933 5932 5932 5931 5930 5930 5929 5928 5927 5926 5925 5925 5924 5923 5922 5920 5919 5918 5917 5916 5915 5914 5913 5912 5911 5910 5909 5908 5907 5906 5904 5903 5901 5900 5899 5898 5897 5896 5895 5893 5893 5892 5892 5891 5891 5890 5890 5890 5890 5889 5889 5888 5887 5887 5886 5886 5885 5884 5883 5881 5881 5883 5886 5887 5887 5888 5889 5890 5891 5892 5893 5894 5895 5896 5897 5898 5899 5900 5902 5903 5903 5904 5905 5906 5907
5932 5931 5931 5930 5929 5928 5927 5926 5926 5925 5924 5923 5922 5921 5920 5919 5918 5917 5916 5915 5914 5913 5912 5910 5909 5908 5907 5906 5905 5904 5903 5901 5900 5898 5897 5896 5895 5894 5893 5892 5891 5890 5889 5889 5888 5888 5888 5888 5887 5887 5887 5887 5886 5885 5885 5884 5883 5882 5881 5880 5880 5881 5883 5883 5884 5885 5885 5887 5888 5889 5890 5890 5891 5893 5894 5895 5897 5898 5899 5900 5902 5902 5903 5904 5905
5930 5930 5929 5928 5927 5926 5926 5925 5924 5924 5923 5922 5921 5920 5919 5918 5917 5916 5915 5913 5912 5911 5910 5909 5907 5906 5905 5904 5903 5902 5901 5900 5898 5897 5895 5894 5893 5892 5891 5890 5889 5888 5887 5886 5886 5885 5885 5885 5885 5884 5884 5884 5884 5884 5883 5883 5882 5881 5880 5879 5878 5879 5880 5880 5880 5881 5882 5883 5884 5885 5887 5887 5888 5890 5891 5893 5894 5895 5896 5897 5899 5900 5901 5902 5903
5929 5928 5927 5926 5925 5924 5924 5923 5923 5922 5922 5921 5920 5919 5918 5917 5915 5914 5913 5912 5911 5910 5909 5907 5906 5905 5903 5902 5901 5900 5899 5897 5896 5895 5894 5893 5892 5890 5889 5889 5888 5887 5886 5884 5884 5883 5882 5882 5882 5882 5881 5881 5881 5881 5881 5880 5880 5879 5878 5877 5876 5876 5876 5876 5877 5878 5878 5878 5879 5881 5882 5884 5885 5886 5888 5889 5890 5892 5893 5894 5896 5897 5898 5900 5901
5927 5926 5925 5924 5923 5923 5922 5921 5921 5920 5920 5919 5918 5917 5916 5915 5914 5913 5911 5910 5909 5908 5907 5906 5905 5903 5902 5900 5899 5898 5896 5895 5894 5893 5892 5891 5890 5889 5888 5887 5886 5885 5884 5883 5881 5880 5880 5879 5879 5879 5878 5878 5878 5878 5877 5877 5877 5876 5875 5874 5873 5873 5872 5872 5872 5873 5874 5875 5875 5877 5878 5879 5881 5882 5884 5885 5887 5888 5889 5891 5893 5894 5896 5897 5898
5925 5924 5923 5922 5921 5921 5920 5919 5919 5918 5917 5916 5915 5915 5914 5913 5912 5911 5910 5908 5907 5906 5905 5904 5903 5902 5901 5899 5898 5896 5894 5892 5891 5890 5890 5889 5887 5886 5885 5884 5884 5883 5881 5880 5879 5878 5877 5876 5875 5875 5875 5875 5875 5875 5874 5874 5873 5873 5872 5871 5870 5870 5869 5869 5868 5869 5870 5871 5871 5873 5874 5875 5876 5878 5879 5881 5883 5884 5886 5887 5889 5891 5892 5894 5895
5922 5922 5921 5920 5920 5919 5918 5917 5917 5916 5915 5914 5913 5912 5912 5911 5910 5909 5908 5907 5906 5905 5904 5903 5902 5901 5899 5898 5896 5894 5892 5890 5888 5887 5887 5886 5885 5884 5883 5882 5881 5880 5879 5878 5877 5876 5875 5874 5873 5872 5872 5872 5872 5872 5871 5871 5870 5869 5869 5868 5867 5866 5866 5866 5865 5865 5865 5866 5867 5869 5869 5870 5872 5874 5875 5876 5878 5880 5882 5883 5885 5887 5888 5889 5890
5920 5920 5919 5919 5918 5917 5916 5916 5915 5914 5913 5912 5911 5910 5910 5909 5908 5907 5906 5905 5904 5903 5902 5901 5900 5899 5898 5896 5895 5893 5891 5889 5886 5884 5883 5882 5881 5881 5881 5880 5879 5878 5876 5876 5875 5874 5873 5872 5871 5870 5870 5869 5869 5869 5868 5867 5867 5866 5865 5865 5864 5863 5863 5863 5863 5862 5862 5862 5863 5864 5865 5866 5867 5869 5870 5872 5873 5875 5877 5879 5880 5881 5882 5883 5884
5918 5918 5918 5917 5916 5915 5915 5914 5913 5912 5911 5910 5909 5908 5908 5907 5906 5905 5905 5904 5903 5902 5901 5900 5898 5897 5895 5894 5892 5891 5889 5887 5885 5883 5881 5879 5878 5877 5876 5876 5876 5875 5874 5873 5872 5871 5870 5869 5868 5868 5867 5867 5866 5866 5865 5864 5863 5862 5861 5861 5861 5860 5860 5859 5859 5859 5859 5859 5859 5860 5861 5861 5862 5863 5865 5867 5869 5870 5872 5873 5874 5876 5878 5879 5881
5917 5917 5916 5915 5915 5914 5913 5912 5911 5910 5909 5909 5908 5907 5906 5905 5904 5904 5903 5902 5901 5900 5899 5897 5896 5894 5893 5891 5890 5889 5887 5886 5884 5882 5880 5877 5876 5874 5872 5871 5872 5872 5871 5870 5869 5868 5867 5866 5866 5865 5864 5864 5863 5862 5861 5860 5859 5859 5858 5857 5857 5857 5857 5856 5855 5855 5855 5855 5855 5855 5856 5857 5858 5859 5860 5862 5864 5865 5867 5868 5869 5871 5874 5876 5879
5915 5915 5914 5913 5913 5912 5911 5910 5909 5908 5908 5907 5906 5905 5904 5903 5902 5901 5901 5900 5899 5898 5896 5895 5893 5892 5890 5889 5888 5886 5885 5884 5882 5880 5878 5876 5874 5872 5870 5868 5867 5867 5867 5867 5866 5865 5864 5863 5863 5862 5861 5860 5860 5859 5858 5857 5856 5855 5855 5854 5853 5853 5852 5852 5852 5851 5851 5851 5851 5851 5852 5852 5853 5854 5855 5857 5858 5860 5861 5863 5864 5866 5869 5872 5874
5913 5913 5912 5911 5911 5910 5909 5908 5907 5906 5905 5905 5904 5903 5902 5901 5900 5899 5898 5897 5896 5895 5893 5892 5891 5889 5888 5886 5885 5884 5882 5881 5880 5878 5876 5874 5872 5870 5868 5866 5865 5863 5862 5862 5862 5861 5860 5860 5859 5858 5858 5857 5856 5855 5854 5854 5853 5852 5851 5851 5850 5849 5848 5848 5848 5847 5847 5847 5847 5847 5847 5847 5848 5849 5850 5851 5853 5855 5856 5857 5859 5862 5864 5867 5869
5910 5910 5909 5908 5908 5907 5906 5906 5905 5904 5903 5902 5901 5900 5899 5898 5897 5896 5895 5894 5893 5892 5891 5890 5888 5887 5885 5884 5882 5881 5879 5878 5877 5875 5874 5872 5870 5868 5866 5864 5862 5861 5859 5858 5857 5857 5856 5856 5856 5855 5854 5853 5852 5851 5850 5850 5849 5848 5847 5847 5846 5845 5845 5844 5844 5843 5843 5842 5842 5842 5842 5843 5843 5844 5845 5846 5848 5849 5851 5852 5854 5856 5859 5861 5863
5908 5907 5906 5905 5904 5904 5903 5903 5902 5901 5900 5899 5899 5898 5897 5895 5894 5893 5892 5891 5890 5889 5888 5887 5886 5884 5883 5881 5880 5878 5877 5875 5873 5872 5871 5869 5867 5865 5863 5861 5859 5858 5857 5856 5854 5853 5852 5852 5852 5851 5851 5850 5849 5848 5847 5846 5845 5844 5843 5842 5842 5841 5841 5840 5840 5839 5838 5838 5838 5838 5838 5838 5838 5839 5840 5841 5842 5843 5845 5846 5848 5850 5853 5855 5858
5905 5904 5903 5902 5901 5901 5901 5900 5899 5898 5897 5896 5895 5895 5894 5893 5892 5890 5889 5888 5888 5887 5885 5884 5883 5881 5880 5878 5877 5875 5874 5872 5870 5869 5867 5866 5864 5862 5860 5858 5857 5855 5854 5853 5852 5850 5849 5848 5848 5848 5847 5846 5845 5844 5843 5842 5841 5840 5839 5838 5837 5837 5836 5836 5836 5835 5834 5834 5833 5833 5833 5833 5833 5833 5834 5835 5836 5837 5839 5840 5842 5844 5846 5849 5852
5902 5901 5900 5899 5899 5898 5897 5897 5896 5895 5894 5893 5892 5892 5891 5891 5890 5888 5887 5886 5885 5884 5883 5881 5880 5879 5877 5876 5874 5872 5870 5869 5867 5866 5865 5863 5861 5859 5858 5856 5854 5852 5851 5851 5849 5847 5845 5844 5844 5843 5843 5842 5840 5839 5839 5838 5837 5837 5835 5833 5833 5832 5832 5831 5831 5831 5830 5829 5829 5829 5829 5828 5828 5828 5828 5829 5830 5831 5832 5834 5836 5838 5840 5842 5845
5899 5898 5898 5897 5896 5895 5894 5893 5893 5892 5891 5890 5890 5889 5888 5888 5887 5886 5884 5883 5882 5881 5880 5879 5877 5876 5874 5873 5871 5869 5867 5866 5864 5863 5862 5860 5858 5856 5854 5852 5851 5849 5848 5847 5846 5845 5842 5841 5839 5838 5838 5837 5835 5834 5833 5833 5832 5832 5831 5829 5828 5827 5827 5826 5826 5826 5826 5825 5824 5824 5824 5824 5823 5823 5823 5823 5825 5826 5827 5828 5830 5832 5833 5836 5839
5897 5896 5895 5894 5893 5892 5891 5890 5889 5889 5888 5887 5886 5886 5885 5884 5883 5882 5881 5880 5879 5878 5877 5876 5874 5873 5872 5870 5868 5866 5864 5862 5861 5860 5859 5857 5854 5853 5851 5849 5847 5846 5845 5844 5843 5841 5839 5837 5836 5834 5833 5832 5831 5829 5827 5826 5826 5826 5825 5824 5823 5823 5822 5821 5820 5820 5820 5820 5820 5819 5819 5819 5818 5818 5818 5818 5819 5820 5821 5822 5823 5825 5827 5829 5832
5895 5894 5893 5892 5891 5890 5889 5888 5886 5886 5885 5884 5883 5882 5882 5881 5880 5879 5878 5876 5875 5874 5874 5873 5872 5870 5869 5867 5866 5864 5861 5860 5858 5857 5856 5854 5852 5850 5848 5846 5844 5843 5841 5840 5839 5837 5836 5834 5833 5831 5828 5827 5826 5825 5823 5821 5820 5820 5820 5818 5818 5817 5817 5816 5815 5814 5814 5814 5814 5814 5814 5814 5813 5813 5813 5813 5813 5814 5815 5816 5817 5819 5821 5823 5825
5892 5891 5890 5889 5888 5886 5886 5885 5883 5882 5882 5880 5879 5878 5878 5877 5876 5875 5874 5872 5871 5870 5870 5869 5868 5867 5865 5864 5863 5861 5859 5857 5856 5854 5853 5851 5849 5847 5845 5843 5841 5839 5838 5836 5835 5834 5832 5830 5829 5827 5825 5823 5821 5819 5818 5817 5815 5814 5814 5813 5812 5812 5811 5810 5809 5808 5807 5807 5808 5808 5808 5808 5808 5808 5807 5807 5807 5808 5809 5810 5811 5813 5815 5816 5819
5889 5888 5887 5885 5884 5882 5881 5881 5880 5879 5878 5877 5876 5875 5874 5873 5873 5871 5870 5869 5867 5866 5866 5865 5865 5863 5862 5860 5859 5858 5856 5855 5853 5852 5850 5848 5846 5844 5842 5840 5837 5835 5834 5832 5831 5830 5828 5826 5825 5823 5822 5820 5818 5815 5813 5812 5811 5809 5809 5808 5807 5806 5806 5805 5803 5802 5801 5801 5801 5801 5802 5802 5802 5802 5802 5802 5802 5802 5802 5804 5805 5807 5808 5810 5812
5885 5884 5882 5881 5880 5879 5877 5876 5876 5875 5874 5873 5872 5871 5870 5869 5868 5868 5866 5865 5864 5863 5862 5862 5861 5860 5858 5857 5855 5854 5853 5851 5850 5848 5846 5844 5842 5840 5838 5836 5834 5831 5829 5828 5826 5825 5824 5822 5820 5818 5818 5817 5815 5812 5809 5807 5806 5804 5803 5803 5801 5800 5799 5798 5798 5797 5795 5794 5794 5795 5795 5795 5795 5795 5796 5796 5796 5796 5796 5797 5799 5800 5802 5804 5806
5880 5879 5878 5876 5875 5874 5873 5872 5872 5871 5870 5869 5868 5867 5867 5865 5864 5863 5862 5861 5861 5860 5859 5858 5857 5856 5855 5853 5852 5850 5849 5848 5846 5844 5842 5840 5838 5836 5834 5832 5830 5827 5825 5823 5822 5820 5819 5818 5815 5813 5812 5812 5811 5808 5805 5802 5801 5800 5798 5797 5796 5795 5793 5792 5791 5791 5790 5788 5788 5788 5788 5789 5789 5789 5789 5790 5790 5790 5791 5791 5792 5793 5795 5797 5799
5876 5874 5873 5872 5871 5869 5868 5867 5866 5866 5865 5864 5863 5863 5862 5861 5860 5859 5858 5858 5857 5856 5855 5854 5853 5851 5850 5849 5848 5847 5845 5844 5842 5840 5838 5836 5834 5832 5830 5827 5825 5823 5821 5818 5816 5815 5814 5813 5811 5808 5807 5806 5805 5804 5801 5797 5795 5794 5793 5791 5790 5789 5788 5786 5785 5784 5783 5783 5782 5781 5781 5782 5782 5782 5782 5783 5783 5784 5784 5785 5786 5787 5788 5790 5792
5872 5870 5868 5867 5865 5864 5863 5862 5861 5861 5860 5859 5859 5858 5857 5857 5856 5855 5854 5854 5853 5852 5851 5850 5848 5847 5846 5845 5843 5842 5841 5839 5838 5836 5833 5832 5829 5827 5825 5823 5820 5818 5815 5813 5811 5810 5808 5807 5806 5804 5801 5800 5799 5798 5795 5792 5790 5789 5786 5785 5783 5782 5781 5780 5779 5777 5776 5776 5775 5774 5774 5775 5775 5775 5775 5775 5776 5777 5778 5779 5779 5780 5781 5783 5784
5868 5867 5865 5863 5861 5860 5859 5858 5856 5855 5855 5854 5854 5853 5853 5852 5852 5851 5850 5850 5849 5848 5846 5845 5844 5842 5841 5840 5839 5837 5836 5835 5833 5831 5829 5827 5824 5822 5820 5818 5815 5813 5810 5808 5805 5804 5802 5801 5799 5798 5796 5795 5793 5791 5788 5786 5784 5783 5781 5779 5778 5776 5774 5773 5772 5771 5769 5768 5768 5767 5767 5768 5768 5767 5768 5768 5769 5770 5770 5771 5773 5773 5774 5775 5777
5865 5864 5862 5861 5858 5856 5855 5853 5852 5850 5850 5850 5849 5848 5848 5848 5847 5847 5846 5845 5844 5843 5842 5841 5839 5838 5837 5836 5834 5833 5831 5830 5828 5826 5824 5822 5820 5818 5815 5813 5810 5808 5805 5802 5800 5798 5796 5794 5793 5791 5790 5788 5787 5784 5782 5780 5779 5777 5775 5772 5771 5769 5766 5765 5765 5764 5762 5761 5760 5760 5760 5760 5761 5761 5760 5761 5761 5762 5763 5764 5765 5766 5767 5768 5769
5862 5860 5859 5857 5855 5853 5851 5849 5847 5846 5846 5845 5844 5844 5844 5843 5843 5842 5842 5841 5840 5839 5837 5836 5835 5833 5832 5831 5830 5828 5827 5825 5824 5821 5819 5817 5815 5813 5810 5808 5805 5803 5800 5797 5795 5793 5791 5789 5788 5786 5784 5782 5780 5778 5776 5774 5772 5770 5768 5766 5763 5761 5759 5759 5758 5756 5754 5753 5753 5753 5752 5752 5753 5753 5753 5753 5754 5754 5755 5756 5757 5759 5759 5760 5761
5859 5856 5854 5853 5851 5848 5846 5845 5843 5842 5842 5840 5839 5839 5839 5839 5838 5838 5837 5837 5836 5835 5833 5832 5830 5829 5828 5827 5825 5823 5822 5821 5819 5817 5815 5812 5810 5808 5805 5802 5800 5797 5795 5793 5791 5788 5786 5784 5783 5781 5779 5777 5774 5771 5770 5768 5765 5763 5760 5758 5756 5754 5752 5751 5752 5750 5746 5745 5746 5746 5746 5744 5744 5745 5746 5746 5746 5747 5747 5748 5749 5750 5751 5752 5753
5855 5852 5850 5849 5847 5844 5842 5841 5839 5838 5838 5836 5835 5835 5835 5834 5833 5833 5833 5832 5832 5830 5829 5827 5826 5824 5823 5822 5820 5818 5817 5816 5815 5813 5810 5807 5804 5803 5800 5797 5794 5792 5790 5788 5786 5783 5781 5779 5777 5775 5773 5771 5768 5765 5763 5761 5758 5755 5753 5750 5748 5746 5745 5744 5744 5743 5740 5737 5736 5738 5740 5737 5735 5736 5738 5739 5739 5740 5740 5741 5741 5742 5742 5743 5744
5851 5848 5846 5844 5843 5841 5838 5836 5835 5834 5833 5832 5831 5830 5830 5829 5829 5828 5828 5828 5827 5826 5824 5823 5821 5820 5818 5817 5815 5814 5813 5812 5810 5808 5805 5802 5798 5797 5795 5792 5789 5787 5785 5783 5780 5778 5775 5773 5771 5769 5766 5764 5762 5759 5756 5753 5751 5748 5745 5742 5740 5739 5738 5736 5736 5736 5733 5730 5729 5730 5732 5730 5727 5728 5731 5731 5732 5733 5733 5733 5734 5734 5734 5734 5735
5845 5843 5841 5839 5838 5836 5834 5832 5831 5830 5829 5828 5826 5825 5825 5825 5824 5824 5823 5823 5822 5821 5820 5818 5816 5815 5813 5812 5810 5809 5808 5807 5805 5802 5799 5796 5794 5791 5789 5786 5784 5781 5778 5776 5774 5772 5769 5767 5765 5763 5759 5757 5755 5753 5749 5746 5743 5741 5738 5736 5733 5732 5731 5729 5728 5728 5726 5724 5722 5722 5725 5723 5719 5720 5724 5724 5725 5726 5726 5726 5726 5726 5726 5726 5726
5839 5838 5836 5834 5832 5831 5829 5828 5826 5826 5825 5824 5822 5821 5821 5821 5820 5819 5819 5819 5818 5816 5814 5813 5812 5810 5808 5807 5806 5804 5803 5801 5799 5796 5793 5790 5788 5786 5784 5781 5778 5775 5772 5770 5767 5765 5763 5760 5758 5756 5753 5750 5748 5746 5742 5739 5736 5733 5731 5730 5728 5725 5724 5722 5721 5721 5719 5717 5714 5714 5717 5716 5712 5714 5717 5717 5718 5719 5718 5718 5718 5718 5717 5717 5717
5833 5831 5830 5828 5827 5826 5824 5823 5822 5822 5821 5820 5819 5818 5818 5817 5816 5816 5815 5814 5813 5811 5809 5807 5806 5805 5803 5802 5800 5799 5797 5796 5793 5790 5787 5784 5782 5780 5778 5776 5772 5769 5766 5763 5761 5758 5756 5754 5752 5750 5747 5744 5741 5739 5736 5732 5729 5727 5724 5723 5721 5719 5717 5716 5715 5715 5713 5711 5708 5707 5709 5709 5706 5706 5710 5710 5710 5712 5711 5710 5710 5709 5708 5707 5708
5828 5826 5824 5824 5823 5821 5820 5819 5818 5818 5817 5816 5815 5814 5813 5813 5812 5812 5811 5809 5808 5806 5804 5802 5801 5799 5798 5796 5795 5793 5792 5790 5787 5784 5782 5779 5776 5774 5771 5769 5766 5762 5759 5757 5754 5753 5750 5747 5746 5744 5742 5738 5735 5732 5729 5726 5723 5720 5718 5716 5714 5712 5711 5710 5709 5709 5707 5705 5702 5700 5701 5702 5699 5699 5702 5703 5702 5703 5703 5703 5702 5700 5698 5697 5698
5823 5821 5820 5819 5818 5817 5816 5815 5814 5813 5812 5811 5810 5809 5809 5808 5808 5807 5806 5804 5803 5800 5798 5796 5795 5794 5793 5791 5790 5788 5786 5783 5780 5778 5775 5772 5770 5767 5765 5762 5759 5756 5753 5750 5748 5747 5744 5742 5740 5737 5735 5732 5729 5726 5723 5720 5717 5714 5712 5710 5708 5706 5705 5704 5703 5703 5701 5700 5697 5694 5694 5696 5693 5692 5694 5695 5694 5694 5694 5694 5693 5691 5688 5687 5688
5819 5817 5816 5814 5814 5812 5810 5810 5809 5808 5807 5806 5806 5805 5804 5803 5803 5802 5800 5799 5797 5795 5793 5791 5790 5789 5788 5787 5784 5782 5780 5777 5773 5771 5769 5766 5763 5761 5758 5756 5753 5750 5747 5744 5742 5741 5739 5737 5734 5731 5729 5726 5723 5720 5717 5714 5711 5708 5706 5705 5703 5701 5700 5698 5697 5696 5695 5694 5691 5688 5688 5690 5688 5685 5685 5685 5685 5686 5685 5684 5683 5681 5678 5677 5677
5814 5813 5812 5811 5809 5807 5805 5805 5804 5803 5802 5801 5800 5800 5799 5798 5798 5796 5794 5793 5791 5790 5788 5786 5785 5784 5783 5781 5779 5775 5772 5770 5767 5764 5762 5759 5757 5755 5752 5749 5746 5744 5740 5738 5736 5734 5733 5731 5728 5726 5723 5720 5717 5714 5711 5708 5706 5703 5700 5698 5697 5695 5693 5693 5692 5690 5689 5689 5685 5682 5683 5684 5683 5680 5677 5674 5676 5678 5677 5675 5673 5671 5669 5667 5666